HISPASAT 1B 1 22723U 93048A 21060.68452387 -.00000241 00000-0 00000-0 0 9990 2 22723 12.1594 26.4550 0006574 354.9273 183.6819 0.99731077100557 INSAT-2B 1 22724U 93048B 21060.66786321 .00000023 00000-0 00000-0 0 9994 2 22724 13.8081 17.1396 0010027 170.4129 39.8418 0.99983329101244 ARIANE 44L+ R/B 1 22725U 93048C 21060.38215369 .00001863 00000-0 14032-2 0 9998 2 22725 6.7884 255.7230 6969814 97.0227 339.8921 2.64824012260997